EW5206 Weather Reports


Display with metric or nautical units.
time (UTC)temp
F
wind
direction
speed
MPH
gust
MPH
rain 1hr
in
rain 24hr
in
rain mn
in
humidity
%
barometer
mb
20260508104545 42 0.0 0.0 0.00 0.00 0.00 75 1016.6
20260508103048 42 0.0 0.0 0.00 0.00 0.00 75 1016.6
20260508101542 42 0.0 0.0 0.00 0.00 0.00 75 1016.4
20260508100041 42 0.0 0.0 0.00 0.00 0.00 74 1016.4
20260508094603 42 0.0 0.0 0.00 0.00 0.00 74 1016.2
20260508093039 42 0.0 0.0 0.00 0.00 0.00 73 1016.1
20260508091540 43 0.0 0.0 0.00 0.00 0.00 73 1016.1
20260508090034 43 0.0 0.0 0.00 0.00 0.00 72 1015.8
20260508084532 44 0.0 0.0 0.00 0.00 0.00 72 1015.8
20260508083030 44 0.0 0.0 0.00 0.00 0.00 71 1015.8
20260508081554 44 0.0 0.0 0.00 0.00 0.00 69 1015.6
20260508080024 45 0.0 0.0 0.00 0.00 0.00 66 1015.5
20260508074523 46 0.0 0.0 0.00 0.00 0.00 64 1015.5
20260508073019 46 0.0 0.0 0.00 0.00 0.00 62 1015.1
20260508071534 47 0.0 0.0 0.00 0.00 0.00 61 1015.0
20260508070116 47 0.0 0.0 0.00 0.00 0.00 59 1015.0
20260508064514 47 0.0 0.0 0.00 0.00 0.00 59 1014.9
20260508063027 48 0.0 0.0 0.00 0.00 0.00 59 1015.0
20260508061511 48 0.0 0.0 0.00 0.00 0.00 58 1015.1
20260508060010 48 0.0 0.0 0.00 0.00 0.00 58 1015.1
20260508054508 48 0.0 0.0 0.00 0.00 0.00 59 1015.0
20260508053006 49 0.0 0.0 0.00 0.00 0.00 61 1014.8
20260508051501 49 0.0 0.0 0.00 0.00 0.00 62 1014.6
20260508050058 49 0.0 0.0 0.00 0.00 0.00 61 1014.4
20260508044600 49 0.0 0.0 0.00 0.00 0.00 63 1014.1
20260508043058 49 0.0 0.0 0.00 0.00 0.00 61 1014.1
20260508041553 50 0.0 0.0 0.00 0.00 0.00 61 1014.0
20260508040055 50 0.0 0.0 0.00 0.00 0.00 61 1014.0
20260508034549 50 0.0 0.0 0.00 0.00 0.00 61 1013.7
20260508033047 50 0.0 0.0 0.00 0.00 0.00 62 1013.8
20260508031544 51 0.0 0.0 0.00 0.00 0.00 64 1013.7
20260508030042 51 0.0 0.0 0.00 0.00 0.00 63 1013.4
20260508024548 51 0.0 0.0 0.00 0.00 0.00 63 1013.3
20260508023038 51 0.0 0.0 0.00 0.00 0.00 64 1013.0
20260508021535 51 0.0 0.0 0.00 0.00 0.00 65 1012.5
20260508020033 51 0.0 0.0 0.00 0.00 0.00 65 1012.3
20260508014537 51 0.0 0.0 0.00 0.00 0.00 66 1011.9
20260508013029 52 0.0 0.0 0.00 0.00 0.00 68 1011.9
20260508011528 52 0.0 0.0 0.00 0.00 0.00 69 1011.8
20260508010033 53 0.0 0.0 0.00 0.00 0.00 66 1011.5
20260508004523 53 0.0 0.0 0.00 0.00 0.00 65 1011.5
20260508003023 54 0.0 0.0 0.00 0.00 0.00 64 1011.4
20260508001521 54 0.0 0.0 0.00 0.00 0.00 64 1011.3
20260508000020 55 0.0 0.0 0.00 0.00 0.00 61 1011.0
20260507234519 55 0.0 0.0 0.00 0.00 0.00 60 1011.0
20260507233034 56 0.0 0.0 0.00 0.00 0.00 59 1010.7
20260507231527 56 0.0 0.0 0.00 0.00 0.00 61 1010.6
20260507230018 57 0.0 0.0 0.00 0.00 0.00 59 1010.3
20260507224517 57 0.0 0.0 0.00 0.00 0.00 59 1010.3
20260507223017 58 0.0 0.0 0.00 0.00 0.00 62 1010.2
20260507221516 58 0.0 0.0 0.00 0.00 0.00 61 1010.0
20260507220019 58 0.0 0.0 0.00 0.00 0.00 60 1010.0
20260507214515 59 0.0 0.0 0.00 0.00 0.00 63 1009.8
20260507213015 59 0.0 0.0 0.00 0.00 0.00 62 1009.5
20260507211519 60 0.0 0.0 0.00 0.00 0.00 61 1009.3
20260507210012 60 0.0 0.0 0.00 0.00 0.00 63 1009.2
20260507204511 60 0.0 0.0 0.00 0.00 0.00 64 1009.2
20260507203011 60 0.0 0.0 0.00 0.00 0.00 65 1009.0
20260507201510 59 0.0 0.0 0.00 0.00 0.00 66 1009.0
20260507200007 59 0.0 0.0 0.00 0.00 0.00 69 1009.1
20260507194506 59 0.0 0.0 0.00 0.00 0.00 72 1009.3
20260507193004 58 0.0 0.0 0.00 0.00 0.00 76 1009.6
20260507191505 57 0.0 0.0 0.00 0.00 0.00 76 1010.1
20260507190005 57 0.0 0.0 0.00 0.00 0.00 78 1010.1
20260507184503 56 0.0 0.0 0.00 0.00 0.00 78 1010.2
20260507183009 56 0.0 0.0 0.00 0.00 0.00 80 1010.3
20260507181502 56 0.0 0.0 0.00 0.00 0.00 79 1010.4
20260507180002 56 0.0 0.0 0.00 0.00 0.00 81 1010.2
20260507174501 56 0.0 0.0 0.00 0.00 0.00 79 1010.4
20260507173104 56 0.0 0.0 0.00 0.00 0.00 80 1010.4
20260507171606 56 0.0 0.0 0.00 0.00 0.00 81 1010.4
20260507170104 56 0.0 0.0 0.00 0.00 0.00 81 1010.5
20260507164605 56 0.0 0.0 0.00 0.00 0.00 81 1010.4
20260507163059 55 0.0 0.0 0.00 0.00 0.00 83 1010.6
20260507161558 55 0.0 0.0 0.00 0.00 0.00 81 1010.7
20260507160058 55 0.0 0.0 0.00 0.00 0.00 80 1010.6
20260507154559 55 0.0 0.0 0.00 0.00 0.00 82 1010.7
20260507153101 55 0.0 0.0 0.00 0.00 0.00 85 1010.7
20260507151555 55 0.0 0.0 0.00 0.00 0.00 84 1010.8
20260507150056 55 0.0 0.0 0.00 0.00 0.00 83 1010.9
20260507144555 55 0.0 0.0 0.00 0.00 0.00 85 1010.8
20260507143059 55 0.0 0.0 0.00 0.00 0.00 87 1010.7
20260507141554 54 0.0 0.0 0.00 0.00 0.00 89 1010.3
20260507140050 54 0.0 0.0 0.00 0.00 0.00 90 1010.6
20260507134550 54 0.0 0.0 0.00 0.00 0.00 93 1010.3
20260507133102 54 0.0 0.0 0.00 0.00 0.00 93 1010.8
20260507131553 54 0.0 0.0 0.00 0.00 0.00 93 1010.8
20260507130104 54 0.0 0.0 0.00 0.00 0.00 94 1011.0
20260507124546 54 0.0 0.0 0.00 0.00 0.00 95 1010.7
20260507123046 54 0.0 0.0 0.00 0.00 0.00 95 1010.8
20260507121556 54 0.0 0.0 0.00 0.00 0.00 95 1010.7
20260507120053 54 0.0 0.0 0.00 0.00 0.00 95 1010.5
20260507114619 54 0.0 0.0 0.00 0.00 0.00 95 1010.6
20260507113041 54 0.0 0.0 0.00 0.00 0.00 96 1010.4
20260507111540 54 0.0 0.0 0.00 0.00 0.00 96 1010.4
20260507110039 54 0.0 0.0 0.00 0.00 0.00 96 1009.9